ANZ3250 YBBN-YSSY

Flight info

Callsign ANZ3250
Flight time 1h 19m
Altitude 40000
Route BN H91 IGDAM H652 TESAT
Aircraft B789/H-SDE1E2E3FGHIJ2J3J4J5M1RWXY/LB1D1

Departure

Time 2026-04-22 23:38
Airport Brisbane International Airport (YBBN)

Arrival

Time 2026-04-23 00:58
Airport Sydney Kingsford Smith International Airport (YSSY)
Time Latitude Longitude Altitude Speed Heading
2026-04-22 22:56 -27.38703 153.12156 27 ft 0 kts 13°
2026-04-22 23:19 -27.38706 153.12155 23 ft 3 kts 14°
2026-04-22 23:19 -27.38730 153.12146 29 ft 4 kts 32°
2026-04-22 23:19 -27.38747 153.12128 29 ft 4 kts 65°
2026-04-22 23:20 -27.38750 153.12108 29 ft 3 kts 111°
2026-04-22 23:20 -27.38749 153.12105 29 ft 10 kts 114°
2026-04-22 23:26 -27.38749 153.12106 23 ft 0 kts 114°
2026-04-22 23:28 -27.38750 153.12108 23 ft 2 kts 114°
2026-04-22 23:28 -27.38761 153.12135 25 ft 6 kts 114°
2026-04-22 23:28 -27.38778 153.12193 27 ft 10 kts 106°
2026-04-22 23:29 -27.38793 153.12264 24 ft 10 kts 93°
2026-04-22 23:29 -27.38762 153.12325 25 ft 8 kts 30°
2026-04-22 23:29 -27.38743 153.12335 27 ft 9 kts 27°
2026-04-22 23:29 -27.38733 153.12341 24 ft 9 kts 27°
2026-04-22 23:30 -27.38673 153.12375 24 ft 11 kts 27°
2026-04-22 23:30 -27.38609 153.12411 28 ft 12 kts 26°
2026-04-22 23:30 -27.38526 153.12458 29 ft 14 kts 27°
2026-04-22 23:30 -27.38434 153.12511 28 ft 16 kts 27°
2026-04-22 23:31 -27.38332 153.12570 28 ft 18 kts 27°
2026-04-22 23:31 -27.38217 153.12635 28 ft 19 kts 27°
2026-04-22 23:31 -27.38094 153.12706 25 ft 20 kts 27°
2026-04-22 23:31 -27.37964 153.12780 29 ft 22 kts 26°
2026-04-22 23:32 -27.37825 153.12859 26 ft 23 kts 27°
2026-04-22 23:32 -27.37701 153.12931 24 ft 24 kts 27°
2026-04-22 23:32 -27.37541 153.13023 25 ft 25 kts 27°
2026-04-22 23:32 -27.37385 153.13111 27 ft 26 kts 26°
2026-04-22 23:33 -27.37274 153.13186 25 ft 10 kts 59°
2026-04-22 23:33 -27.37273 153.13221 26 ft 3 kts 109°
2026-04-22 23:33 -27.37287 153.13257 27 ft 6 kts 115°
2026-04-22 23:33 -27.37309 153.13308 27 ft 8 kts 115°
2026-04-22 23:34 -27.37326 153.13351 29 ft 0 kts 115°
2026-04-22 23:34 -27.37327 153.13351 29 ft 0 kts 115°
2026-04-22 23:36 -27.37330 153.13358 28 ft 4 kts 117°
2026-04-22 23:37 -27.37363 153.13405 30 ft 8 kts 141°
2026-04-22 23:37 -27.37393 153.13423 26 ft 0 kts 156°
2026-04-22 23:37 -27.37439 153.13433 28 ft 17 kts 179°
2026-04-22 23:38 -27.37607 153.13349 27 ft 48 kts 207°
2026-04-22 23:38 -27.38149 153.13042 27 ft 125 kts 206°
2026-04-22 23:38 -27.39162 153.12457 93 ft 195 kts 205°
2026-04-22 23:38 -27.40364 153.11744 958 ft 200 kts 206°
2026-04-22 23:39 -27.41557 153.11062 1330 ft 204 kts 205°
2026-04-22 23:39 -27.42869 153.10327 1854 ft 224 kts 205°
2026-04-22 23:39 -27.44354 153.09490 2644 ft 243 kts 201°
2026-04-22 23:39 -27.45981 153.09180 3686 ft 239 kts 176°
2026-04-22 23:40 -27.47665 153.09049 4703 ft 246 kts 185°
2026-04-22 23:40 -27.49368 153.08761 5633 ft 253 kts 185°
2026-04-22 23:40 -27.51128 153.08494 6652 ft 260 kts 184°
2026-04-22 23:40 -27.52978 153.08257 6984 ft 271 kts 184°
2026-04-22 23:41 -27.54844 153.08015 6981 ft 267 kts 184°
2026-04-22 23:41 -27.56682 153.07767 6984 ft 266 kts 184°
2026-04-22 23:41 -27.58519 153.07520 6981 ft 265 kts 184°
2026-04-22 23:41 -27.60350 153.07274 6981 ft 265 kts 184°
2026-04-22 23:42 -27.62182 153.07029 6990 ft 263 kts 184°
2026-04-22 23:42 -27.64006 153.06785 6984 ft 264 kts 183°
2026-04-22 23:42 -27.65806 153.06544 6987 ft 265 kts 183°
2026-04-22 23:42 -27.67654 153.06296 7532 ft 265 kts 184°
2026-04-22 23:43 -27.69453 153.06054 8572 ft 267 kts 184°
2026-04-22 23:43 -27.71314 153.05805 9535 ft 271 kts 184°
2026-04-22 23:43 -27.73204 153.05552 10352 ft 281 kts 184°
2026-04-22 23:43 -27.75242 153.05281 10614 ft 308 kts 184°
2026-04-22 23:44 -27.77464 153.04985 10902 ft 332 kts 184°
2026-04-22 23:44 -27.79771 153.04670 11738 ft 335 kts 185°
2026-04-22 23:44 -27.82090 153.04249 12572 ft 341 kts 194°
2026-04-22 23:44 -27.84325 153.03241 13257 ft 349 kts 199°
2026-04-22 23:45 -27.86603 153.02276 14137 ft 351 kts 197°
2026-04-22 23:45 -27.88905 153.01300 14827 ft 356 kts 198°
2026-04-22 23:45 -27.91218 153.00280 15609 ft 358 kts 199°
2026-04-22 23:45 -27.93552 152.99244 16316 ft 362 kts 199°
2026-04-22 23:46 -27.95905 152.98213 17066 ft 364 kts 198°
2026-04-22 23:46 -27.98281 152.97178 17743 ft 368 kts 199°
2026-04-22 23:46 -28.00682 152.96125 18457 ft 371 kts 199°
2026-04-22 23:46 -28.03101 152.95061 19047 ft 374 kts 199°
2026-04-22 23:47 -28.05506 152.94004 19659 ft 376 kts 200°
2026-04-22 23:47 -28.07952 152.92930 20275 ft 378 kts 200°
2026-04-22 23:47 -28.10416 152.91847 20802 ft 382 kts 201°
2026-04-22 23:47 -28.12897 152.90743 21423 ft 383 kts 201°
2026-04-22 23:48 -28.15393 152.89629 21918 ft 387 kts 201°
2026-04-22 23:48 -28.17903 152.88514 22481 ft 389 kts 202°
2026-04-22 23:48 -28.20436 152.87389 22956 ft 393 kts 202°
2026-04-22 23:48 -28.22993 152.86252 23435 ft 396 kts 202°
2026-04-22 23:49 -28.25565 152.85106 23911 ft 399 kts 203°
2026-04-22 23:49 -28.28164 152.83949 24304 ft 401 kts 203°
2026-04-22 23:49 -28.30771 152.82787 24709 ft 404 kts 203°
2026-04-22 23:49 -28.33394 152.81617 25082 ft 406 kts 203°
2026-04-22 23:50 -28.35997 152.80456 25458 ft 408 kts 203°
2026-04-22 23:50 -28.38629 152.79283 25961 ft 406 kts 203°
2026-04-22 23:50 -28.41277 152.78099 26278 ft 410 kts 203°
2026-04-22 23:50 -28.43944 152.76906 26670 ft 412 kts 203°
2026-04-22 23:51 -28.46630 152.75707 27066 ft 414 kts 203°
2026-04-22 23:51 -28.49326 152.74502 27362 ft 418 kts 204°
2026-04-22 23:51 -28.52000 152.73304 27759 ft 420 kts 203°
2026-04-22 23:51 -28.54762 152.72067 28148 ft 421 kts 203°
2026-04-22 23:52 -28.57469 152.70855 28457 ft 425 kts 204°
2026-04-22 23:52 -28.60223 152.69620 28873 ft 427 kts 203°
2026-04-22 23:52 -28.63002 152.68373 29236 ft 430 kts 203°
2026-04-22 23:52 -28.65788 152.67124 29603 ft 432 kts 203°
2026-04-22 23:53 -28.68593 152.65864 29987 ft 435 kts 204°
2026-04-22 23:53 -28.71417 152.64595 30359 ft 437 kts 204°
2026-04-22 23:53 -28.74256 152.63318 30690 ft 440 kts 204°
2026-04-22 23:53 -28.77114 152.62033 31027 ft 442 kts 204°
2026-04-22 23:54 -28.79981 152.60743 31358 ft 444 kts 204°
2026-04-22 23:54 -28.82826 152.59461 31685 ft 446 kts 204°
2026-04-22 23:54 -28.85675 152.58072 32035 ft 445 kts 210°
2026-04-22 23:54 -28.88422 152.56418 32310 ft 448 kts 209°
2026-04-22 23:55 -28.91194 152.54785 32652 ft 450 kts 209°
2026-04-22 23:55 -28.93978 152.53140 32976 ft 452 kts 209°
2026-04-22 23:55 -28.96776 152.51470 33273 ft 454 kts 209°
2026-04-22 23:55 -28.99577 152.49796 33563 ft 456 kts 209°
2026-04-22 23:56 -29.02404 152.48114 33863 ft 459 kts 209°
2026-04-22 23:56 -29.05248 152.46423 34234 ft 459 kts 209°
2026-04-22 23:56 -29.08071 152.44739 34681 ft 457 kts 209°
2026-04-22 23:56 -29.10882 152.43060 35053 ft 455 kts 209°
2026-04-22 23:57 -29.13694 152.41381 35397 ft 455 kts 209°
2026-04-22 23:57 -29.16499 152.39706 35754 ft 454 kts 210°
2026-04-22 23:57 -29.19259 152.38055 36093 ft 454 kts 210°
2026-04-22 23:57 -29.22059 152.36380 36416 ft 453 kts 210°
2026-04-22 23:58 -29.24848 152.34711 36772 ft 452 kts 210°
2026-04-22 23:58 -29.27644 152.33036 37093 ft 452 kts 210°
2026-04-22 23:58 -29.30427 152.31368 37465 ft 451 kts 210°
2026-04-22 23:58 -29.33219 152.29693 37795 ft 451 kts 210°
2026-04-22 23:59 -29.35997 152.28026 38121 ft 450 kts 210°
2026-04-22 23:59 -29.38784 152.26353 38340 ft 453 kts 210°
2026-04-22 23:59 -29.44361 152.23001 38331 ft 455 kts 210°
2026-04-23 00:00 -29.51830 152.18503 38363 ft 452 kts 210°
2026-04-23 00:01 -29.58318 152.14595 38335 ft 452 kts 210°
2026-04-23 00:01 -29.63880 152.11236 38336 ft 452 kts 210°
2026-04-23 00:02 -29.69488 152.07947 38353 ft 453 kts 204°
2026-04-23 00:02 -29.75577 152.06051 38352 ft 459 kts 196°
2026-04-23 00:03 -29.81805 152.04426 38354 ft 458 kts 195°
2026-04-23 00:03 -29.88033 152.02801 38355 ft 459 kts 196°
2026-04-23 00:04 -29.93209 152.01447 38351 ft 459 kts 196°
2026-04-23 00:04 -29.99445 151.99815 38351 ft 459 kts 195°
2026-04-23 00:05 -30.05663 151.98186 38351 ft 457 kts 195°
2026-04-23 00:05 -30.11863 151.96558 38355 ft 457 kts 195°
2026-04-23 00:06 -30.18057 151.94931 38360 ft 456 kts 195°
2026-04-23 00:06 -30.24251 151.93302 38357 ft 457 kts 195°
2026-04-23 00:07 -30.30412 151.91679 38360 ft 457 kts 195°
2026-04-23 00:07 -30.36380 151.89290 38371 ft 454 kts 204°
2026-04-23 00:08 -30.42251 151.86552 38374 ft 455 kts 204°
2026-04-23 00:08 -30.48122 151.83823 38371 ft 455 kts 204°
2026-04-23 00:09 -30.53988 151.81089 38372 ft 453 kts 204°
2026-04-23 00:09 -30.59793 151.78380 38368 ft 453 kts 204°
2026-04-23 00:10 -30.65655 151.75642 38370 ft 454 kts 204°
2026-04-23 00:10 -30.71483 151.72915 38372 ft 455 kts 204°
2026-04-23 00:11 -30.77355 151.70165 38373 ft 455 kts 204°
2026-04-23 00:11 -30.83219 151.67414 38370 ft 454 kts 204°
2026-04-23 00:12 -30.89095 151.64655 38371 ft 455 kts 204°
2026-04-23 00:12 -30.94969 151.61892 38375 ft 455 kts 203°
2026-04-23 00:13 -31.00827 151.59134 38370 ft 453 kts 204°
2026-04-23 00:13 -31.06663 151.56382 38370 ft 452 kts 203°
2026-04-23 00:14 -31.12469 151.53641 38379 ft 453 kts 203°
2026-04-23 00:14 -31.18277 151.50896 38364 ft 440 kts 203°
2026-04-23 00:14 -31.21075 151.49573 38335 ft 427 kts 203°
2026-04-23 00:15 -31.23787 151.48288 38303 ft 415 kts 203°
2026-04-23 00:15 -31.26423 151.47038 38276 ft 403 kts 204°
2026-04-23 00:15 -31.28990 151.45822 38226 ft 393 kts 204°
2026-04-23 00:16 -31.33941 151.43472 38124 ft 374 kts 204°
2026-04-23 00:16 -31.38707 151.41209 37118 ft 378 kts 202°
2026-04-23 00:16 -31.41193 151.40149 36677 ft 378 kts 202°
2026-04-23 00:17 -31.43599 151.39039 36690 ft 364 kts 202°
2026-04-23 00:17 -31.45890 151.37989 36666 ft 353 kts 202°
2026-04-23 00:17 -31.48180 151.36975 36290 ft 351 kts 201°
2026-04-23 00:17 -31.50466 151.35967 35843 ft 351 kts 202°
2026-04-23 00:18 -31.52749 151.34945 35414 ft 350 kts 202°
2026-04-23 00:18 -31.55025 151.33922 34992 ft 350 kts 202°
2026-04-23 00:18 -31.57305 151.32902 34554 ft 350 kts 201°
2026-04-23 00:18 -31.59590 151.31880 34028 ft 352 kts 201°
2026-04-23 00:19 -31.61886 151.30852 33507 ft 352 kts 201°
2026-04-23 00:19 -31.64176 151.29825 32998 ft 353 kts 201°
2026-04-23 00:19 -31.66468 151.28797 32479 ft 353 kts 201°
2026-04-23 00:19 -31.68734 151.27780 31973 ft 354 kts 201°
2026-04-23 00:20 -31.71039 151.26746 31463 ft 355 kts 200°
2026-04-23 00:20 -31.73341 151.25712 30964 ft 355 kts 200°
2026-04-23 00:20 -31.75653 151.24672 30428 ft 356 kts 200°
2026-04-23 00:20 -31.77966 151.23633 29807 ft 357 kts 200°
2026-04-23 00:21 -31.80290 151.22588 29150 ft 358 kts 200°
2026-04-23 00:21 -31.82621 151.21539 28493 ft 360 kts 199°
2026-04-23 00:21 -31.84965 151.20483 27819 ft 362 kts 199°
2026-04-23 00:21 -31.87325 151.19420 27137 ft 364 kts 199°
2026-04-23 00:22 -31.89701 151.18349 26465 ft 366 kts 199°
2026-04-23 00:22 -31.92097 151.17268 25772 ft 369 kts 199°
2026-04-23 00:22 -31.94498 151.16185 25081 ft 371 kts 199°
2026-04-23 00:22 -31.96917 151.15098 24378 ft 373 kts 199°
2026-04-23 00:23 -31.99353 151.14011 23629 ft 376 kts 198°
2026-04-23 00:23 -32.01806 151.12915 22785 ft 377 kts 199°
2026-04-23 00:23 -32.04261 151.11811 21967 ft 379 kts 199°
2026-04-23 00:23 -32.06727 151.10703 21136 ft 380 kts 198°
2026-04-23 00:24 -32.09173 151.09606 20405 ft 380 kts 198°
2026-04-23 00:24 -32.11621 151.08505 19842 ft 374 kts 198°
2026-04-23 00:24 -32.14045 151.07416 19191 ft 371 kts 198°
2026-04-23 00:24 -32.16442 151.06338 18551 ft 367 kts 198°
2026-04-23 00:25 -32.18824 151.05267 17814 ft 364 kts 198°
2026-04-23 00:25 -32.21182 151.04206 17070 ft 362 kts 198°
2026-04-23 00:25 -32.23334 151.03236 16414 ft 360 kts 198°
2026-04-23 00:25 -32.25688 151.02175 15561 ft 359 kts 198°
2026-04-23 00:26 -32.28087 151.01098 13845 ft 382 kts 199°
2026-04-23 00:26 -32.30620 150.99952 12759 ft 388 kts 199°
2026-04-23 00:26 -32.33122 150.98817 11925 ft 383 kts 199°
2026-04-23 00:26 -32.35602 150.97697 11174 ft 377 kts 198°
2026-04-23 00:27 -32.37967 150.96627 11158 ft 350 kts 198°
2026-04-23 00:27 -32.40183 150.95623 10767 ft 337 kts 198°
2026-04-23 00:27 -32.42346 150.94648 10008 ft 337 kts 198°
2026-04-23 00:27 -32.44525 150.93664 9300 ft 334 kts 198°
2026-04-23 00:28 -32.46684 150.92685 8551 ft 331 kts 198°
2026-04-23 00:28 -32.48838 150.91739 7819 ft 327 kts 193°
2026-04-23 00:28 -32.51066 150.91490 7070 ft 320 kts 173°
2026-04-23 00:28 -32.53259 150.91807 6322 ft 316 kts 169°
2026-04-23 00:29 -32.55417 150.92212 5650 ft 311 kts 168°
2026-04-23 00:29 -32.57549 150.92619 4998 ft 307 kts 168°
2026-04-23 00:29 -32.59664 150.92990 4374 ft 304 kts 169°
2026-04-23 00:29 -32.61735 150.93345 3743 ft 300 kts 169°
2026-04-23 00:30 -32.63785 150.93709 3127 ft 296 kts 169°
2026-04-23 00:30 -32.65777 150.94049 3012 ft 287 kts 170°
2026-04-23 00:30 -32.67791 150.94383 2980 ft 293 kts 170°
2026-04-23 00:30 -32.69645 150.94689 3007 ft 299 kts 171°
2026-04-23 00:31 -32.71698 150.95027 3047 ft 301 kts 169°
2026-04-23 00:31 -32.73723 150.95368 4547 ft 291 kts 169°
2026-04-23 00:31 -32.75760 150.95713 5690 ft 305 kts 169°
2026-04-23 00:31 -32.77910 150.96072 6726 ft 319 kts 169°
2026-04-23 00:32 -32.80148 150.96448 6993 ft 327 kts 169°
2026-04-23 00:32 -32.82393 150.96817 6988 ft 322 kts 169°
2026-04-23 00:32 -32.84605 150.97189 6995 ft 320 kts 169°
2026-04-23 00:32 -32.86805 150.97561 6991 ft 318 kts 168°
2026-04-23 00:33 -32.88832 150.98473 7004 ft 312 kts 140°
2026-04-23 00:33 -32.90155 151.00477 7010 ft 309 kts 111°
2026-04-23 00:33 -32.90407 151.02983 7015 ft 311 kts 82°
2026-04-23 00:33 -32.89528 151.05314 7016 ft 316 kts 53°
2026-04-23 00:34 -32.87765 151.06919 7014 ft 326 kts 26°
2026-04-23 00:34 -32.85529 151.07403 7016 ft 332 kts 359°
2026-04-23 00:34 -32.83306 151.06621 7013 ft 339 kts 331°
2026-04-23 00:34 -32.81603 151.04763 7015 ft 339 kts 304°
2026-04-23 00:35 -32.80702 151.02181 7013 ft 340 kts 278°
2026-04-23 00:35 -32.80850 150.99406 7017 ft 345 kts 251°
2026-04-23 00:35 -32.82057 150.96830 7015 ft 363 kts 227°
2026-04-23 00:35 -32.84021 150.94975 7010 ft 364 kts 204°
2026-04-23 00:36 -32.86415 150.94127 7013 ft 358 kts 182°
2026-04-23 00:36 -32.88865 150.94402 7012 ft 353 kts 161°
2026-04-23 00:36 -32.91112 150.95582 7014 ft 356 kts 150°
2026-04-23 00:36 -32.93303 150.96985 7009 ft 355 kts 150°
2026-04-23 00:37 -32.95534 150.98298 7015 ft 364 kts 154°
2026-04-23 00:37 -32.97904 150.99413 7011 ft 366 kts 159°
2026-04-23 00:37 -33.00392 151.00105 7008 ft 370 kts 169°
2026-04-23 00:37 -33.02922 151.00439 7014 ft 371 kts 173°
2026-04-23 00:38 -33.05530 151.00679 7010 ft 371 kts 173°
2026-04-23 00:38 -33.08065 151.01049 7008 ft 371 kts 169°
2026-04-23 00:38 -33.10602 151.01552 7014 ft 370 kts 169°
2026-04-23 00:38 -33.13153 151.02018 7011 ft 371 kts 169°
2026-04-23 00:39 -33.15714 151.02425 7012 ft 371 kts 171°
2026-04-23 00:39 -33.18274 151.02837 7015 ft 370 kts 170°
2026-04-23 00:39 -33.20824 151.03274 7013 ft 369 kts 170°
2026-04-23 00:39 -33.23365 151.03713 7018 ft 369 kts 170°
2026-04-23 00:40 -33.25911 151.04146 7009 ft 369 kts 171°
2026-04-23 00:40 -33.28440 151.04566 7009 ft 361 kts 170°
2026-04-23 00:40 -33.30844 151.04967 6998 ft 335 kts 170°
2026-04-23 00:40 -33.33097 151.05350 6994 ft 322 kts 169°
2026-04-23 00:41 -33.35266 151.05724 7002 ft 318 kts 170°
2026-04-23 00:41 -33.37470 151.06098 7002 ft 319 kts 170°
2026-04-23 00:41 -33.39670 151.06468 6998 ft 318 kts 170°
2026-04-23 00:41 -33.41850 151.06836 7003 ft 317 kts 170°
2026-04-23 00:42 -33.44042 151.07208 7010 ft 318 kts 170°
2026-04-23 00:42 -33.46239 151.07585 7006 ft 319 kts 170°
2026-04-23 00:42 -33.48431 151.07957 7003 ft 317 kts 170°
2026-04-23 00:42 -33.50598 151.08324 7001 ft 320 kts 170°
2026-04-23 00:43 -33.52804 151.08700 7005 ft 319 kts 170°
2026-04-23 00:43 -33.54989 151.09072 6781 ft 314 kts 170°
2026-04-23 00:43 -33.57171 151.09444 6133 ft 317 kts 170°
2026-04-23 00:43 -33.59338 151.09812 5701 ft 312 kts 170°
2026-04-23 00:44 -33.61483 151.10178 5190 ft 311 kts 170°
2026-04-23 00:44 -33.63614 151.10532 4749 ft 307 kts 172°
2026-04-23 00:44 -33.65740 151.10628 4241 ft 305 kts 178°
2026-04-23 00:44 -33.67843 151.10713 3759 ft 300 kts 174°
2026-04-23 00:45 -33.69887 151.11078 3266 ft 297 kts 167°
2026-04-23 00:45 -33.71895 151.11689 2698 ft 296 kts 165°
2026-04-23 00:45 -33.73882 151.12264 2710 ft 296 kts 167°
2026-04-23 00:45 -33.75895 151.12766 3016 ft 296 kts 167°
2026-04-23 00:46 -33.77901 151.13263 2982 ft 285 kts 167°
2026-04-23 00:46 -33.79906 151.13784 2713 ft 302 kts 167°
2026-04-23 00:46 -33.81888 151.14303 2529 ft 283 kts 167°
2026-04-23 00:46 -33.83789 151.14789 2221 ft 264 kts 168°
2026-04-23 00:47 -33.85386 151.14821 3383 ft 205 kts 185°
2026-04-23 00:47 -33.86602 151.14168 4211 ft 172 kts 201°
2026-04-23 00:47 -33.87657 151.13541 4597 ft 171 kts 198°
2026-04-23 00:47 -33.88642 151.12915 4518 ft 175 kts 202°
2026-04-23 00:48 -33.89679 151.12135 4339 ft 174 kts 211°
2026-04-23 00:48 -33.90594 151.11068 3974 ft 209 kts 224°
2026-04-23 00:48 -33.91542 151.09500 3887 ft 236 kts 236°
2026-04-23 00:48 -33.92149 151.07723 3789 ft 225 kts 255°
2026-04-23 00:49 -33.92250 151.05906 3681 ft 211 kts 270°
2026-04-23 00:49 -33.92161 151.04432 3651 ft 211 kts 272°
2026-04-23 00:49 -33.91807 151.02675 3743 ft 221 kts 293°
2026-04-23 00:49 -33.90958 151.01139 3996 ft 222 kts 313°
2026-04-23 00:50 -33.89745 150.99993 4007 ft 222 kts 332°
2026-04-23 00:50 -33.88303 150.99395 4012 ft 221 kts 352°
2026-04-23 00:50 -33.86776 150.99287 4011 ft 218 kts
2026-04-23 00:50 -33.85366 150.99750 3848 ft 208 kts 41°
2026-04-23 00:51 -33.84487 151.01003 3856 ft 189 kts 56°
2026-04-23 00:51 -33.83618 151.02201 3609 ft 192 kts 50°
2026-04-23 00:51 -33.82987 151.02950 3486 ft 192 kts 47°
2026-04-23 00:51 -33.81743 151.04346 3389 ft 169 kts 46°
2026-04-23 00:52 -33.81106 151.05066 3021 ft 170 kts 47°
2026-04-23 00:52 -33.80553 151.05698 2892 ft 158 kts 47°
2026-04-23 00:52 -33.79720 151.06660 2984 ft 184 kts 48°
2026-04-23 00:52 -33.78765 151.07756 2979 ft 191 kts 46°
2026-04-23 00:53 -33.77735 151.08975 3037 ft 207 kts 52°
2026-04-23 00:53 -33.77324 151.10442 3006 ft 177 kts 90°
2026-04-23 00:53 -33.77546 151.11841 2968 ft 163 kts 123°
2026-04-23 00:53 -33.78307 151.12803 2945 ft 163 kts 140°
2026-04-23 00:54 -33.79242 151.13523 2756 ft 159 kts 155°
2026-04-23 00:54 -33.80315 151.13904 2542 ft 160 kts 166°
2026-04-23 00:54 -33.81383 151.14178 2341 ft 154 kts 167°
2026-04-23 00:54 -33.82440 151.14443 2149 ft 158 kts 166°
2026-04-23 00:55 -33.83505 151.14718 1918 ft 156 kts 166°
2026-04-23 00:55 -33.84561 151.14991 1723 ft 158 kts 166°
2026-04-23 00:55 -33.85636 151.15272 1509 ft 153 kts 167°
2026-04-23 00:55 -33.86724 151.15549 1297 ft 162 kts 167°
2026-04-23 00:56 -33.87794 151.15824 1079 ft 151 kts 166°
2026-04-23 00:56 -33.88843 151.16098 882 ft 156 kts 165°
2026-04-23 00:56 -33.89875 151.16368 677 ft 153 kts 166°
2026-04-23 00:56 -33.90926 151.16641 466 ft 151 kts 167°
2026-04-23 00:57 -33.91944 151.16905 272 ft 151 kts 167°
2026-04-23 00:57 -33.92978 151.17172 90 ft 153 kts 167°
2026-04-23 00:57 -33.93944 151.17420 33 ft 120 kts 168°
2026-04-23 00:57 -33.94609 151.17594 36 ft 80 kts 168°
2026-04-23 00:58 -33.95037 151.17703 33 ft 45 kts 168°
2026-04-23 00:58 -33.95156 151.17789 34 ft 8 kts 89°
2026-04-23 00:58 -33.95150 151.17823 35 ft 7 kts 79°
2026-04-23 00:58 -33.95140 151.17883 36 ft 8 kts 75°
2026-04-23 00:59 -33.95109 151.17929 36 ft 7 kts 26°
2026-04-23 00:59 -33.95060 151.17933 36 ft 8 kts 349°
2026-04-23 00:59 -33.94995 151.17917 36 ft 11 kts 348°
2026-04-23 00:59 -33.94915 151.17896 35 ft 13 kts 348°
2026-04-23 01:00 -33.94819 151.17870 35 ft 15 kts 347°
2026-04-23 01:00 -33.94709 151.17842 35 ft 17 kts 348°
2026-04-23 01:00 -33.94587 151.17810 35 ft 19 kts 348°
2026-04-23 01:00 -33.94458 151.17775 35 ft 20 kts 347°
2026-04-23 01:01 -33.94317 151.17730 35 ft 22 kts 344°
2026-04-23 01:01 -33.94190 151.17690 35 ft 23 kts 346°
2026-04-23 01:01 -33.94026 151.17644 33 ft 25 kts 347°
2026-04-23 01:01 -33.93853 151.17597 34 ft 26 kts 349°
2026-04-23 01:02 -33.93744 151.17571 34 ft 14 kts 349°
2026-04-23 01:02 -33.93671 151.17575 35 ft 7 kts 35°
2026-04-23 01:02 -33.93659 151.17593 34 ft 1 kts 73°
2026-04-23 01:02 -33.93647 151.17609 35 ft 6 kts 37°
2026-04-23 01:03 -33.93589 151.17616 35 ft 12 kts 347°
2026-04-23 01:03 -33.93489 151.17592 35 ft 13 kts 350°
2026-04-23 01:03 -33.93463 151.17592 35 ft 2 kts 18°
2026-04-23 01:03 -33.93459 151.17600 35 ft 1 kts 64°
2026-04-23 01:04 -33.93456 151.17648 35 ft 10 kts 95°
2026-04-23 01:04 -33.93460 151.17680 35 ft 0 kts 99°
2026-04-23 01:04 -33.93461 151.17688 35 ft 0 kts 99°